Starlink 31428

operational
NORAD ID: 59367 Int'l Des: 2024-060 Owner: SPXS Country: US Constellation: starlink
LEOCIRCULAR

About Starlink 31428

Description loading...

Live Position

Loading 3D Globe...

Upcoming Passes

Altitude History

Altitude vs Time

uPlot chart will show altitude changes over time

Two-Line Element Set

1 59367U 24060V 25351.03257536 .00001196 00000-0 52981-4 0 9995
2 59367 43.0022 6.4733 0000669 292.3903 67.6878 15.27582057 97421
Epoch: Dec 17, 2025 • Age: 20 hours

Current Status

Altitude 493.3 km
Velocity 7.62 km/s
Sub-Earth Point -36.22°S, 163.43°W
Launch Date Mar 31, 2024
Age 1.7 years
Type internet

Technical Details

Classification Payload
Mass 730.00 kg
Dry Mass 700.00 kg
Total Mass 730.00 kg
Length 0.30 m
Diameter 4.10 m
Span 29.00 m
Shape Box + pan
Manufacturer SPXS
Bus Type Starlink V2M
Phase Status In Orbit
Owner/State SPXS/US

Large Constellations

Loading constellations...